Probability
0 0 0 0 0 0 0 0 0 0 0 0 0 0 1 2 2 2 2 3 3 3 3 4 5 6 6 5 4 2 1 0 0 0 1 2 3 3 3 3 3 3 3 3 3 3 3 3 3
0 0 0 0 0 0 0 0 0 0 0 0 0 0 0 1 2 3 3 3 3 3 2 4 6 6 5 5 4 2 1 1 1 1 2 3 3 3 3 3 3 3 3 3 3 3 3 3 3
0 0 0 0 0 0 0 0 0 0 0 0 0 0 0 1 3 4 4 3 3 3 3 4 5 5 5 5 5 3 3 2 2 3 3 3 3 3 3 3 3 3 3 3 3 3 3 3 3
0 0 0 0 0 0 0 0 1 2 3 1 0 0 0 3 8 10 7 4 4 4 4 4 4 5 6 7 7 6 6 4 4 3 3 3 3 3 3 4 3 3 3 3 3 3 3 3 3
0 0 0 0 0 0 0 1 6 9 9 5 1 0 1 9 19 19 10 6 6 6 5 5 5 5 6 7 8 9 8 6 4 3 3 3 3 3 4 5 4 3 3 3 3 3 3 3 3
0 0 0 0 0 0 0 3 10 18 17 11 5 2 4 15 27 24 14 9 8 7 6 5 4 4 4 5 6 7 7 6 4 3 3 3 3 3 4 6 5 4 3 3 4 4 5 5 5
0 0 0 0 0 0 1 5 16 27 30 22 12 5 5 16 30 33 23 14 9 7 5 4 3 3 3 4 4 4 4 4 3 3 3 3 3 3 4 4 4 4 5 5 6 9 10 10 10
0 0 0 0 0 0 3 12 26 41 47 41 25 13 12 26 47 55 44 26 15 9 5 4 3 3 3 3 3 3 3 3 3 3 3 3 3 3 3 4 4 5 7 9 11 17 20 20 18
0 0 0 0 0 1 7 21 39 55 64 62 49 35 35 52 72 79 66 46 30 20 13 9 6 5 4 4 3 3 3 4 5 5 5 6 6 5 5 6 6 7 9 12 19 29 34 33 31
0 0 0 0 0 4 14 30 49 66 75 74 67 61 63 75 87 88 77 64 52 42 33 26 21 17 13 11 9 7 6 7 9 10 11 13 13 10 8 8 9 10 14 21 34 45 50 51 51
0 0 0 0 0 6 19 38 58 75 81 79 77 78 81 86 89 87 81 77 72 65 57 49 44 39 33 27 21 14 10 12 16 18 18 20 20 15 11 10 11 15 24 36 50 60 64 64 64
0 0 0 0 3 10 23 41 62 76 81 83 83 85 88 89 87 84 80 78 76 74 68 62 58 53 46 37 27 19 15 16 19 20 21 25 26 19 14 12 13 18 28 42 54 61 63 60 58
0 0 0 1 7 19 34 46 56 64 71 76 81 83 83 83 81 77 71 67 66 65 61 54 50 45 37 29 22 19 18 18 17 17 21 26 26 20 15 13 14 15 21 29 38 43 44 42 40
0 0 0 2 8 21 38 47 46 45 49 57 64 68 67 66 64 59 55 52 49 45 40 34 30 25 20 15 14 16 17 14 12 13 18 21 19 16 14 12 10 8 9 12 16 20 23 23 24
0 0 0 1 3 12 27 36 32 27 28 33 39 43 45 42 39 38 36 35 31 25 20 16 14 11 9 9 9 10 10 7 5 9 12 12 11 11 12 10 6 3 2 3 5 8 11 13 15
0 0 0 0 0 4 14 21 20 15 15 15 18 21 23 21 19 20 20 17 14 11 8 7 7 7 6 6 6 5 3 2 1 3 5 5 6 7 9 6 3 1 0 1 2 4 6 9 10
0 0 0 0 0 2 6 11 12 11 9 8 8 10 10 9 8 9 8 7 6 5 3 2 3 4 3 2 3 2 1 0 0 1 1 2 3 4 5 3 1 0 0 0 1 1 3 4 6
0 0 0 0 0 1 3 7 10 9 7 6 5 5 5 5 4 3 3 3 3 2 0 0 1 1 0 0 1 1 0 0 0 0 0 1 2 2 2 1 0 0 0 0 0 0 1 2 3
0 0 0 0 0 1 2 4 6 6 4 3 3 3 3 2 1 0 0 1 1 0 0 0 0 0 0 0 0 0 0 0 0 0 0 1 1 0 0 0 0 0 0 0 0 0 0 1 2
0 0 0 0 0 0 1 3 3 3 3 1 1 2 2 1 0 0 0 0 0 0 0 0 0 0 0 0 0 0 0 0 0 0 0 0 0 0 0 0 0 0 0 0 0 0 0 0 1
0 0 0 0 0 0 2 3 3 3 2 1 0 1 1 0 0 0 0 0 0 0 0 0 0 0 0 0 0 0 0 0 0 0 0 0 0 0 0 0 0 0 0 0 0 0 0 0 0
0 0 0 0 0 0 1 2 2 2 1 0 0 0 0 0 0 0 0 0 0 0 0 0 0 0 0 0 0 0 0 0 0 0 0 0 0 0 0 0 0 0 0 0 0 0 0 0 0
0 0 0 0 0 0 0 0 1 1 0 0 0 0 0 0 0 0 0 0 0 0 0 0 0 0 0 0 0 0 0 0 0 0 0 0 0 0 0 0 0 0 0 0 0 0 0 0 0
0 0 0 0 0 0 0 0 0 0 0 0 0 0 0 0 0 0 0 0 0 0 0 0 0 0 0 0 0 0 0 0 0 0 0 0 0 0 0 0 0 0 0 0 0 0 0 0 0
0 0 0 0 0 0 0 0 0 0 0 0 0 0 0 0 0 0 0 0 0 0 0 0 0 0 0 0 0 0 0 0 0 0 0 0 0 0 0 0 0 0 0 0 0 0 0 0 0
0 0 0 0 0 0 0 0 0 0 0 0 0 0 0 0 0 0 0 0 0 0 0 0 0 0 0 0 0 0 0 0 0 0 0 0 0 0 0 0 0 0 0 0 0 0 0 0 0
0 0 0 0 0 0 0 0 0 0 0 0 0 0 0 0 0 0 0 0 0 0 0 0 0 0 0 0 0 0 0 0 0 0 0 0 0 0 0 0 0 0 0 0 0 0 0 0 0
0 0 0 0 0 0 0 0 0 0 0 0 0 0 0 0 0 0 0 0 0 0 0 0 0 0 0 0 0 0 0 0 0 0 0 0 0 0 0 0 0 0 0 0 0 0 0 0 0
0 0 0 0 0 0 0 0 0 0 0 0 0 0 0 0 0 0 0 0 0 0 0 0 0 0 0 0 0 0 0 0 0 0 0 0 0 0 0 0 0 0 0 0 0 0 0 0 0
0 0 0 0 0 0 0 0 0 0 0 0 0 0 0 0 0 0 0 0 0 0 0 0 0 0 0 0 0 0 0 0 0 0 0 0 0 0 0 0 0 0 0 0 0 0 0 0 0
Wind_Speed
13 9 4 2 1 1 6 7 2 2 4 7 10 10 7 7 5 5 3 13 17 15 11 13 14 15 15 15 14 14 13 13 13 13 13 13 13 12 12 11 11 11 11 11 11 11 10 10 10
9 7 2 1 1 2 7 5 2 4 9 12 11 9 7 8 9 10 7 13 17 15 10 12 15 15 14 14 14 13 13 13 13 12 12 12 12 11 11 11 10 10 10 10 11 11 10 10 9
9 6 2 1 3 4 6 3 2 5 8 8 6 5 5 6 10 8 10 16 14 11 9 12 17 15 15 14 13 13 13 13 13 12 12 12 12 11 11 10 10 9 9 10 10 10 10 10 9
4 2 1 1 7 9 7 8 2 7 8 8 8 6 5 4 6 12 18 17 15 11 9 12 17 16 15 14 13 13 13 12 12 12 12 12 12 11 11 11 10 10 9 10 10 10 10 10 9
2 2 1 4 8 8 8 6 6 10 7 8 11 7 4 6 17 20 18 17 15 12 9 11 16 16 15 14 13 13 12 12 12 11 11 11 11 11 11 11 11 10 10 10 11 11 11 11 10
1 2 1 4 7 9 7 2 12 15 13 9 9 7 3 8 17 17 16 14 14 13 9 10 16 16 15 14 13 12 11 11 10 10 10 9 9 9 9 10 11 11 11 11 11 12 12 12 11
2 2 3 4 7 7 5 6 10 12 10 6 5 7 3 6 11 14 13 13 11 11 8 6 7 9 13 13 12 11 11 10 10 9 9 9 9 9 9 10 10 11 12 12 12 13 13 13 13
4 2 3 3 4 6 6 8 9 11 9 6 5 6 3 4 11 14 13 11 10 8 7 5 5 5 5 6 11 11 11 11 10 10 10 10 10 10 10 9 10 12 13 13 13 14 14 14 13
1 2 3 4 4 5 5 8 10 10 11 9 7 6 6 10 15 16 12 9 8 8 5 5 4 4 4 4 8 9 10 10 9 8 10 9 5 4 6 9 12 14 15 15 15 15 16 14 14
4 3 7 7 4 2 5 7 6 9 12 9 8 10 12 14 14 15 12 10 8 8 6 4 4 3 4 5 4 3 4 4 5 4 5 4 4 5 7 9 15 16 17 17 17 17 16 12 6
4 7 9 10 9 1 4 8 8 9 10 6 6 9 12 15 13 13 12 11 9 8 8 5 3 3 3 2 2 1 2 3 4 5 6 4 4 4 5 3 6 9 12 9 11 12 8 7 6
5 9 9 8 6 1 4 7 9 11 9 10 12 12 15 16 13 12 12 11 9 10 9 6 5 5 5 4 1 0 1 1 2 4 5 4 3 3 3 3 3 4 4 5 6 6 8 8 9
6 11 10 5 2 6 12 12 12 11 12 12 14 15 14 13 11 10 10 9 9 9 8 6 5 5 4 3 1 1 1 0 1 1 2 3 2 2 2 2 2 3 3 4 5 6 8 9 9
5 3 3 2 4 6 13 10 8 7 9 12 13 12 11 10 10 9 8 8 8 7 5 5 5 4 4 3 2 2 2 2 1 1 0 2 2 1 2 2 3 3 3 4 4 6 7 7 8
3 4 5 6 6 3 8 11 8 5 7 10 10 10 10 8 8 8 7 6 6 5 5 4 5 5 5 4 4 3 3 3 2 2 2 1 1 1 1 2 2 3 3 4 4 5 5 7 7
5 5 4 5 5 4 9 7 5 6 7 6 7 8 8 7 7 7 7 6 5 5 5 4 6 6 6 5 5 4 4 4 3 3 2 1 1 1 1 2 3 3 3 3 3 4 5 6 7
5 2 2 3 5 5 8 5 4 5 7 5 4 5 6 6 6 6 6 6 5 5 4 4 5 5 5 5 5 5 4 5 4 4 3 2 2 1 1 2 3 3 3 3 3 3 4 5 5
2 2 2 3 5 8 7 5 5 6 6 3 2 3 4 5 5 6 6 6 5 5 4 4 4 4 4 4 4 4 5 5 5 4 4 3 2 2 1 2 4 3 3 3 3 4 4 4 4
1 1 1 1 5 7 7 5 4 5 3 1 1 2 3 5 5 6 6 6 5 4 4 4 4 3 3 2 2 2 3 3 4 4 6 5 4 4 3 3 3 3 3 4 4 3 4 3 3
1 2 1 1 4 5 6 4 2 2 2 4 5 5 6 5 5 6 6 5 5 5 5 5 5 4 3 2 1 1 1 2 2 3 4 5 6 6 5 4 4 3 3 4 4 3 2 2 2
1 4 5 4 4 5 4 1 2 2 2 5 7 7 7 8 8 7 7 6 6 6 6 5 5 5 3 2 1 2 2 3 3 4 4 5 7 7 6 6 4 3 3 3 4 3 3 3 2
3 6 9 10 6 1 1 1 4 2 2 5 6 6 7 8 8 7 6 6 6 5 5 5 5 4 3 3 2 1 0 2 3 3 3 6 6 7 7 6 4 3 2 2 3 2 2 3 3
4 5 7 8 6 4 2 2 4 2 4 6 6 7 8 9 9 8 6 6 5 4 4 4 4 3 2 2 2 1 1 2 3 3 4 5 5 6 6 6 5 4 2 2 3 2 2 2 3
9 7 7 5 4 3 1 1 3 4 6 5 6 7 8 8 7 5 3 4 3 3 4 4 3 2 2 1 1 2 3 3 3 4 4 4 4 5 6 6 5 4 4 4 4 3 3 3 3
5 6 3 4 4 1 2 1 6 6 7 7 8 7 7 5 4 4 5 4 4 4 3 3 3 2 2 2 2 3 3 2 2 3 3 3 3 3 5 5 4 4 4 5 4 4 4 3 3
3 7 6 3 3 1 2 3 7 6 6 6 7 6 4 3 4 5 5 5 4 4 3 3 2 2 2 2 3 2 2 1 2 3 3 4 3 4 4 4 4 5 5 5 4 4 4 4 4
3 2 5 7 4 3 2 4 7 4 3 4 4 4 4 5 6 6 5 5 4 4 3 3 3 2 2 3 2 2 2 3 3 4 4 4 4 4 4 5 5 5 5 5 4 3 5 4 4
5 4 6 6 4 2 1 3 5 5 6 4 4 6 6 5 5 5 5 4 4 3 3 3 3 3 3 3 3 3 3 4 4 4 5 5 5 5 5 6 6 6 5 5 4 4 5 5 5
3 3 5 4 6 6 3 5 7 9 7 7 7 8 8 7 6 5 5 4 4 3 3 3 3 3 4 4 4 4 4 5 5 5 6 6 5 6 6 6 6 6 6 6 5 5 5 5 5
3 4 6 5 0 4 4 6 3 8 8 9 8 7 7 7 6 5 5 4 3 3 3 4 4 4 5 5 4 5 5 5 5 6 7 6 7 7 7 6 6 7 7 6 6 7 6 5 6
Wind_Direction
147 141 139 116 94 244 258 254 230 78 66 62 68 70 70 57 92 125 96 137 136 143 145 142 139 138 138 137 136 134 132 129 128 127 127 127 128 130 132 135 138 141 143 145 146 144 140 136 135
146 147 142 101 214 292 272 246 142 116 123 109 83 76 68 73 90 110 115 135 137 139 137 139 137 136 136 136 137 139 139 137 136 137 138 139 140 142 144 147 150 152 153 154 154 154 152 149 148
162 174 142 175 241 230 266 283 142 123 120 108 91 55 56 88 113 123 135 138 133 133 131 141 138 136 134 134 135 139 143 144 145 147 149 151 153 156 159 160 164 165 163 164 164 164 162 161 162
155 154 314 243 252 247 253 273 162 109 72 72 92 57 35 44 110 129 136 139 134 131 131 143 139 138 136 136 139 143 147 150 153 156 159 162 166 170 172 174 176 177 177 176 176 175 172 172 176
104 127 246 278 269 271 275 269 113 96 85 86 95 91 46 37 112 129 139 142 137 134 138 144 143 143 143 144 146 149 153 157 161 165 168 172 176 181 183 184 186 188 190 189 186 185 183 184 187
119 135 182 272 286 296 311 77 98 93 103 102 95 95 59 101 125 136 138 138 138 140 142 146 151 151 152 154 156 157 159 164 168 173 178 184 188 193 197 197 198 200 202 201 197 194 193 193 196
163 156 234 271 298 316 348 47 83 99 96 82 98 94 79 100 130 131 129 128 130 135 136 137 148 154 158 160 162 165 169 174 179 185 190 197 203 208 212 214 214 214 212 210 209 204 201 200 201
175 101 295 301 305 312 337 51 68 85 81 70 71 106 121 104 113 117 118 118 120 125 134 132 136 142 152 164 173 177 181 185 191 196 200 207 213 218 223 224 226 225 222 222 220 213 210 209 209
127 64 270 265 282 304 343 69 63 59 78 59 53 76 93 95 108 114 112 110 116 123 128 136 145 155 161 169 188 188 192 198 203 208 213 215 221 230 237 238 234 234 232 229 227 223 218 215 217
129 177 239 236 255 299 20 58 80 77 66 55 52 56 74 82 100 114 120 115 111 116 122 131 142 162 175 189 182 189 205 207 209 209 219 215 210 223 234 240 243 242 240 236 231 229 224 221 219
196 219 251 269 271 214 79 59 45 94 65 64 88 80 80 83 88 100 102 97 95 100 104 99 91 91 114 133 137 192 220 219 218 219 222 221 218 227 238 236 250 249 247 241 237 233 226 219 216
247 261 258 272 281 172 106 99 66 64 87 86 84 83 81 85 89 96 99 97 96 93 91 82 72 70 70 81 98 160 224 216 216 224 227 219 223 231 239 238 242 244 242 237 232 230 226 223 222
251 267 278 294 32 85 92 92 93 80 87 87 85 81 82 88 89 89 91 91 91 90 87 81 70 67 65 68 41 29 354 337 216 217 220 200 204 229 243 256 255 252 251 246 240 235 233 229 228
257 291 333 3 76 74 95 90 81 89 95 89 86 87 89 92 96 93 89 89 89 92 93 86 66 60 61 53 34 20 15 14 23 16 233 177 179 206 244 264 271 269 261 253 246 242 236 232 231
321 347 18 24 51 65 92 63 73 95 92 91 92 96 96 94 94 95 100 99 96 92 93 97 82 62 53 41 28 22 9 7 357 336 333 316 189 203 246 270 278 276 275 269 259 254 246 241 234
7 28 22 352 38 35 79 85 91 78 73 82 95 99 99 95 99 106 110 108 107 102 92 81 78 66 53 43 30 17 8 4 347 331 323 310 270 235 254 273 276 276 284 280 269 258 252 248 234
24 30 346 335 34 49 73 100 88 64 64 61 83 102 109 111 110 119 126 129 131 130 118 94 77 68 58 45 31 19 11 5 346 332 316 289 275 264 257 270 274 276 277 276 279 274 256 254 244
307 349 349 346 10 50 68 77 66 44 43 49 95 118 131 138 150 156 157 154 151 146 135 117 98 84 75 50 32 22 12 357 347 338 324 315 310 297 281 270 273 274 271 274 271 270 264 255 252
122 90 67 319 37 51 56 63 36 15 23 304 254 171 176 178 182 178 180 175 167 162 148 142 130 118 97 70 53 36 355 340 341 346 349 346 333 318 298 284 281 271 258 260 265 266 269 263 247
104 118 181 23 69 77 73 53 6 350 283 248 226 204 195 195 190 194 197 192 187 180 172 161 152 142 132 133 143 164 252 302 310 326 338 343 335 321 312 288 274 267 262 270 268 259 265 273 238
250 183 184 161 87 58 90 59 286 263 241 235 223 209 197 190 194 209 204 196 188 183 179 167 163 151 146 133 90 24 8 349 345 335 332 330 328 323 315 298 277 264 246 258 264 253 243 257 264
236 214 175 157 136 122 119 178 267 262 264 229 227 211 204 203 203 209 200 187 186 187 174 159 156 156 156 138 119 132 281 288 278 286 303 316 326 331 331 322 308 285 258 263 275 264 245 238 256
192 167 144 138 125 101 24 139 272 233 226 226 223 216 213 214 206 206 198 185 175 163 149 149 149 161 176 172 169 179 256 256 279 307 326 328 327 334 340 339 340 329 306 289 289 292 272 244 234
133 95 79 75 84 73 272 157 267 228 218 222 226 223 222 218 209 197 169 137 122 115 125 140 147 180 210 211 216 220 260 284 313 326 327 322 319 323 335 341 342 336 327 311 301 291 284 272 257
120 107 58 17 29 333 287 310 260 246 230 220 224 229 230 216 174 140 126 118 123 128 141 153 157 198 237 243 263 268 273 280 290 289 291 302 308 309 314 333 333 328 317 310 305 298 288 281 278
166 134 146 181 182 225 297 266 265 267 249 232 229 228 215 145 126 129 139 142 150 156 156 157 167 213 249 260 275 285 263 238 260 268 271 280 275 274 288 308 315 317 316 315 310 297 287 281 277
54 45 152 122 96 100 257 278 297 284 258 222 205 173 145 139 138 143 150 154 161 161 165 171 178 219 254 254 254 256 245 255 264 273 275 278 276 280 298 305 309 310 311 309 305 292 289 285 273
123 131 73 85 115 106 233 234 229 225 218 196 164 150 154 154 151 152 162 171 174 174 176 179 187 212 233 240 246 243 250 259 261 267 275 276 276 279 291 294 296 297 298 299 302 292 287 287 279
20 45 90 102 135 138 193 256 227 198 186 164 166 168 169 170 169 176 182 186 184 182 187 199 220 233 242 242 241 251 259 262 262 260 261 261 263 268 271 275 281 285 286 286 287 285 285 279 281
171 169 138 127 179 132 146 261 277 163 162 156 165 175 178 175 181 186 188 197 204 210 219 228 237 243 243 237 236 243 253 260 262 261 260 257 258 260 258 261 266 271 277 276 273 275 283 272 270